Terminal Aerodrome Forecast
Issued by NWS Charleston, WV

Current Version | Previous Version | Text Only | Print | Product List | Glossary Off
Versions: 1 2 3 4 5 6 7 8 9 10 11 12 13 14 15 16 17 18 19 20 21 22 23 24

000
FTUS41 KRLX 161400 AAA
TAFBKW
TAF AMD
KBKW 161406Z 1614/1712 03004KT 2SM BR OVC003
     FM161700 02005KT 6SM BR SCT014 OVC024
     FM161900 31005KT P6SM BKN035
     FM162200 34006KT P6SM SCT025
     FM170800 00000KT P6SM BKN200=

USA.gov is the U.S. government's official web portal to all federal, state and local government web resources and services.